Wind_Speed
23 23 24 26 27 27 27 27 26 25 26 27 28 30 32 34 36 35 35 33 33 33 31 31 31 30 31 29 28 28 28 28 27 28 29 30 32 34 36 37 39 40 42
27 27 27 28 29 30 30 30 29 29 30 31 32 33 36 37 38 38 36 35 33 31 27 26 27 27 27 27 27 25 25 25 27 29 31 34 35 36 38 39 41 43 44
31 30 30 30 30 31 32 32 31 31 33 34 35 35 37 39 41 41 39 37 33 28 26 26 25 25 25 27 27 27 27 29 30 32 36 38 40 41 41 42 45 47 48
34 34 33 31 31 32 32 33 33 33 35 36 36 37 39 41 42 42 40 37 31 29 26 24 24 24 25 27 29 30 31 33 35 37 40 42 44 46 48 49 50 52 54
36 35 34 33 33 33 33 34 35 35 36 37 38 39 41 42 42 41 39 35 32 29 29 29 27 27 28 30 32 33 35 37 39 42 45 47 49 50 52 55 56 57 58
37 36 35 34 34 35 35 36 37 38 39 39 40 41 42 42 42 40 39 38 34 32 32 31 31 31 33 34 36 38 40 42 45 47 49 51 53 54 56 58 60 61 62
36 35 35 35 35 36 37 37 38 39 40 41 42 42 42 42 42 41 40 38 36 35 34 35 36 37 38 40 41 44 46 48 49 51 52 55 56 58 60 62 63 63 63
34 34 34 34 35 35 35 36 37 39 40 41 42 42 42 41 40 41 40 40 39 39 39 40 41 42 44 45 47 49 50 51 52 54 56 57 58 60 61 62 63 64 64
30 30 30 31 31 32 33 35 36 38 39 40 41 42 42 41 41 41 41 41 42 43 44 45 45 46 48 50 50 51 53 54 55 56 57 59 60 61 62 62 63 64 64
27 27 27 28 29 30 32 33 35 37 38 40 41 42 42 42 42 43 43 44 46 47 48 48 49 51 52 53 53 54 55 56 57 57 58 59 60 61 62 61 62 63 63
25 26 27 27 29 30 32 33 35 36 38 39 40 41 42 42 44 45 47 48 50 51 52 52 53 54 54 55 55 55 56 56 57 58 58 59 59 60 60 60 60 60 60
24 25 27 28 29 31 33 34 35 37 38 39 40 42 43 45 46 48 50 51 53 55 55 56 56 56 56 56 57 57 57 57 57 56 56 57 57 57 57 58 58 58 58
27 28 29 30 32 33 35 36 38 39 40 41 43 44 46 47 49 51 53 55 56 56 57 57 57 57 57 57 57 57 57 56 55 54 54 54 54 54 55 55 56 56 57
31 32 33 34 35 36 38 39 40 42 43 44 45 47 49 51 53 54 55 56 57 57 57 58 58 58 58 57 56 56 55 54 53 52 52 52 52 53 53 54 54 54 54
34 35 36 37 38 39 41 42 43 44 46 47 48 49 51 52 54 55 56 57 57 58 57 57 57 57 56 55 54 53 52 51 51 51 51 51 52 52 52 52 51 50 50
38 39 40 40 41 42 43 44 45 45 46 47 49 50 52 53 55 56 56 56 57 56 56 56 55 54 53 52 51 50 50 49 50 50 50 50 50 50 49 48 47 45 44
39 38 40 40 41 42 42 43 43 45 46 48 49 51 53 54 55 55 55 55 55 54 53 52 52 51 50 49 49 48 48 49 49 49 49 49 48 46 45 43 42 40 37
37 38 38 39 40 41 42 43 44 45 47 49 50 52 53 53 53 53 53 52 51 50 50 49 49 48 47 48 48 48 48 48 48 47 46 45 43 41 39 37 35 31 29
36 36 37 38 40 41 42 43 45 46 48 49 50 50 50 51 51 50 49 49 48 48 47 47 47 47 47 47 47 47 47 46 45 43 41 38 35 33 30 28 26 24 22
35 36 37 39 40 41 42 44 45 46 47 47 48 48 48 48 47 47 46 46 46 46 45 45 45 46 46 45 45 44 43 41 39 36 33 29 26 24 23 21 19 18 18
35 36 37 38 39 40 42 42 43 44 44 44 45 44 44 44 44 44 44 44 44 44 44 44 44 44 43 42 40 37 35 32 30 27 24 21 19 17 15 13 13 14 15
33 34 35 36 37 38 39 40 40 41 41 41 41 41 41 42 42 42 42 43 43 43 42 41 40 38 36 33 31 28 26 24 22 19 17 15 13 11 10 10 11 12 13
31 32 33 34 35 36 37 37 37 37 37 38 39 39 40 41 41 42 41 41 40 38 36 34 32 30 28 25 23 21 19 17 15 13 11 9 7 7 7 8 10 12 12
30 30 31 32 33 33 34 34 34 34 35 36 37 39 40 40 40 39 37 35 33 31 29 26 25 23 21 20 18 16 13 11 9 8 6 4 4 6 7 8 10 11 12
26 27 28 28 29 29 29 30 32 33 34 36 37 38 37 36 34 32 29 27 25 23 21 20 18 17 16 14 12 9 7 5 4 2 2 3 5 6 7 9 10 11 12
21 22 23 23 24 26 27 29 31 32 33 34 33 33 31 29 26 24 21 19 18 16 15 14 13 12 10 8 5 3 1 1 2 3 4 5 6 7 8 10 11 12 13
Wind_Direction
258 261 263 264 264 265 268 271 273 275 280 284 286 289 290 291 295 294 296 294 292 289 286 284 285 280 279 279 281 280 279 281 282 283 284 285 287 287 287 287 286 284 283
258 262 265 263 263 264 266 269 271 275 278 280 284 287 290 292 295 298 299 301 299 295 295 291 289 286 287 286 288 286 286 285 285 288 289 291 290 290 290 288 288 287 285
259 263 266 264 262 262 264 266 268 272 275 279 283 288 291 294 296 299 301 304 306 303 301 297 296 293 293 291 289 290 291 290 291 291 292 293 293 293 291 290 290 289 288
261 263 266 264 262 262 263 264 267 271 274 278 284 288 292 294 297 299 302 307 308 308 306 301 298 293 294 296 296 293 295 296 294 294 295 294 294 293 293 292 291 290 289
261 263 265 263 261 261 262 263 266 270 274 278 282 286 289 292 295 297 299 304 308 308 307 305 303 295 296 298 297 297 298 298 297 295 295 295 294 292 292 292 292 291 289
261 262 262 260 259 260 261 263 266 268 272 276 280 284 287 289 292 295 296 299 303 305 305 305 303 301 300 300 298 299 300 298 297 295 294 293 292 291 290 290 290 289 289
260 260 260 258 258 259 260 262 264 267 270 274 278 281 284 286 289 292 296 298 301 304 304 303 303 302 301 301 298 297 297 296 295 294 292 292 291 290 289 289 288 288 288
258 258 258 257 258 258 259 260 263 265 268 272 275 279 281 284 288 291 295 298 301 303 304 303 303 302 301 299 298 296 296 295 294 292 291 291 289 289 288 288 288 288 288
256 256 256 256 256 256 257 259 261 263 267 270 274 277 280 285 290 293 296 299 300 301 302 302 301 301 300 299 298 297 295 293 292 292 291 289 288 288 288 288 288 288 289
255 255 255 255 255 256 257 259 261 263 266 270 274 278 282 287 290 293 296 298 299 300 300 301 300 300 299 298 296 295 294 293 292 292 291 289 289 289 289 289 289 290 291
254 255 256 256 256 257 259 260 263 266 269 273 276 280 283 288 291 294 296 297 298 299 300 301 300 300 298 297 295 295 294 293 292 292 291 290 290 291 291 292 293 293 293
256 257 257 258 259 260 262 264 267 269 272 275 278 283 286 289 293 295 296 297 298 299 299 299 299 298 297 297 296 295 295 294 293 293 292 292 292 292 293 293 294 294 295
259 260 261 263 264 266 268 269 271 273 275 278 281 285 288 290 292 295 296 297 297 298 298 298 298 298 297 297 297 296 296 295 295 294 294 294 294 295 295 295 296 296 296
263 265 267 268 269 270 271 273 274 276 278 280 283 286 289 291 293 294 295 296 296 297 297 297 297 297 297 297 296 296 296 296 295 295 295 296 296 296 297 297 298 298 298
266 267 270 271 271 272 273 275 277 279 280 282 285 288 290 291 292 293 294 295 295 296 296 296 296 296 296 296 296 296 296 296 296 297 297 297 298 298 299 299 299 299 300
267 269 270 272 273 274 275 276 278 280 282 285 287 288 290 291 292 292 293 294 295 295 295 295 295 296 296 296 296 297 297 297 298 298 299 299 299 300 300 301 301 301 302
266 267 269 270 272 273 277 280 282 284 286 287 288 289 290 291 291 292 293 294 294 295 295 295 295 296 296 296 297 297 298 298 298 299 300 300 301 301 302 302 302 303 304
268 270 271 272 275 279 281 283 284 286 287 288 289 290 290 291 292 292 293 294 294 294 295 295 295 296 296 297 297 298 298 298 299 299 300 301 301 302 303 303 304 305 306
270 272 274 277 280 282 283 284 285 287 288 289 290 291 292 293 293 293 293 293 294 294 294 295 295 296 296 297 298 298 298 299 299 300 301 302 302 303 303 304 305 307 309
272 274 276 279 281 283 284 286 287 289 290 291 292 293 293 293 293 293 293 294 294 294 295 295 296 297 297 298 298 298 299 300 301 301 302 303 303 302 303 305 308 311 315
275 276 278 281 284 285 287 289 290 291 292 293 294 294 294 294 294 294 295 295 295 295 296 296 297 297 297 297 297 298 300 300 301 302 303 305 305 305 307 311 317 322 325
277 279 282 285 287 289 290 291 292 293 294 294 294 294 294 295 295 295 295 296 296 297 297 297 297 297 297 298 298 299 300 300 301 302 304 307 308 312 318 326 333 336 338
280 282 285 288 290 292 293 293 294 295 296 296 296 296 297 297 297 297 297 298 298 298 298 298 298 298 298 298 299 299 300 299 300 303 307 310 318 330 339 345 348 349 351
284 286 289 290 292 293 295 296 297 298 298 299 299 299 299 300 299 299 299 299 299 299 299 299 298 299 300 300 299 299 298 298 301 306 313 329 349 358 2 3 3 4 4
287 289 290 292 295 297 298 300 301 302 302 303 304 304 303 303 302 302 301 301 301 301 301 301 301 302 302 302 302 298 297 301 307 329 19 24 22 22 21 19 19 17 14
290 293 296 299 301 302 304 305 307 308 308 309 309 309 308 307 306 305 305 304 304 303 304 305 306 306 307 307 306 306 318 35 81 75 59 49 44 42 39 34 31 28 25
Height
5870 5870 5871 5871 5871 5871 5871 5870 5869 5868 5866 5864 5862 5860 5857 5854 5852 5850 5848 5845 5842 5839 5836 5834 5832 5830 5830 5829 5828 5827 5826 5825 5824 5824 5823 5822 5820 5818 5816 5814 5811 5809 5806
5864 5865 5866 5866 5866 5866 5866 5865 5864 5863 5861 5859 5857 5855 5852 5849 5846 5843 5841 5838 5835 5832 5830 5828 5826 5825 5823 5822 5821 5820 5819 5818 5817 5816 5814 5813 5812 5810 5807 5804 5801 5798 5795
5858 5858 5859 5859 5860 5860 5860 5860 5859 5858 5855 5853 5852 5850 5847 5843 5842 5839 5835 5832 5829 5827 5825 5823 5820 5819 5817 5816 5815 5815 5813 5811 5810 5808 5806 5803 5801 5798 5796 5793 5789 5786 5782
5850 5851 5852 5852 5853 5854 5854 5854 5853 5852 5850 5848 5846 5844 5841 5839 5836 5833 5830 5827 5825 5823 5820 5818 5815 5813 5812 5810 5809 5808 5806 5804 5801 5799 5796 5793 5789 5786 5783 5780 5777 5772 5768
5842 5843 5844 5845 5846 5847 5847 5847 5847 5846 5844 5843 5841 5838 5836 5833 5830 5827 5824 5822 5819 5817 5814 5812 5810 5808 5807 5804 5802 5800 5797 5795 5792 5789 5785 5781 5777 5773 5769 5765 5761 5757 5753
5833 5835 5836 5838 5839 5840 5840 5840 5839 5838 5837 5835 5833 5831 5828 5826 5823 5820 5817 5815 5813 5810 5808 5806 5804 5802 5799 5797 5794 5791 5788 5785 5781 5777 5773 5769 5765 5760 5755 5750 5746 5741 5736
5825 5827 5828 5829 5831 5831 5832 5832 5831 5830 5829 5827 5825 5823 5820 5818 5815 5812 5810 5807 5805 5802 5800 5798 5795 5793 5790 5787 5784 5781 5777 5773 5769 5764 5759 5755 5750 5745 5740 5734 5729 5724 5719
5817 5819 5820 5821 5822 5823 5823 5823 5823 5822 5820 5819 5816 5814 5812 5809 5807 5804 5801 5799 5796 5794 5791 5788 5785 5782 5779 5776 5772 5768 5764 5759 5755 5750 5745 5740 5734 5729 5724 5718 5713 5708 5703
5810 5811 5812 5813 5814 5815 5815 5815 5814 5813 5812 5810 5808 5806 5803 5800 5798 5795 5792 5789 5786 5783 5780 5777 5774 5770 5767 5763 5759 5754 5750 5745 5740 5735 5730 5724 5719 5713 5707 5701 5695 5690 5686
5802 5804 5805 5805 5806 5807 5807 5807 5806 5805 5803 5801 5799 5797 5794 5791 5788 5785 5782 5779 5776 5772 5768 5765 5761 5758 5753 5749 5744 5740 5735 5730 5724 5719 5714 5708 5702 5696 5690 5685 5678 5672 5668
5796 5797 5797 5798 5799 5799 5799 5798 5797 5796 5794 5792 5790 5787 5784 5781 5778 5774 5771 5767 5764 5760 5756 5752 5747 5743 5739 5734 5729 5724 5719 5714 5708 5703 5697 5692 5686 5680 5674 5668 5662 5656 5650
5789 5789 5790 5790 5790 5790 5789 5789 5788 5786 5784 5782 5780 5777 5774 5770 5767 5763 5759 5755 5751 5747 5742 5738 5733 5728 5724 5718 5714 5709 5703 5698 5692 5687 5681 5676 5670 5665 5659 5653 5647 5641 5634
5782 5782 5782 5782 5781 5781 5780 5779 5778 5776 5774 5772 5769 5766 5763 5759 5755 5751 5747 5742 5738 5733 5728 5724 5719 5714 5709 5703 5698 5693 5688 5682 5677 5671 5666 5661 5656 5650 5644 5638 5632 5625 5619
5773 5773 5773 5773 5772 5771 5770 5769 5767 5765 5763 5760 5758 5754 5751 5747 5743 5739 5734 5729 5724 5719 5714 5709 5704 5699 5694 5689 5684 5678 5673 5668 5663 5657 5652 5647 5641 5635 5629 5623 5617 5610 5604
5764 5764 5764 5763 5762 5761 5759 5758 5756 5754 5751 5748 5746 5742 5738 5734 5730 5725 5720 5715 5710 5705 5700 5695 5690 5685 5680 5674 5669 5664 5659 5654 5649 5644 5638 5633 5628 5621 5615 5609 5603 5597 5591
5755 5754 5753 5752 5751 5750 5748 5746 5744 5742 5739 5736 5733 5729 5725 5720 5716 5711 5706 5701 5696 5691 5685 5680 5675 5670 5666 5661 5656 5651 5646 5641 5636 5630 5625 5619 5614 5608 5602 5597 5591 5585 5579
5744 5744 5743 5741 5740 5738 5737 5734 5732 5729 5726 5723 5719 5715 5711 5706 5701 5697 5692 5686 5681 5676 5671 5666 5661 5657 5652 5647 5643 5638 5633 5629 5623 5618 5612 5607 5601 5596 5591 5585 5580 5575 5569
5734 5733 5732 5731 5729 5727 5725 5722 5719 5717 5713 5710 5705 5701 5697 5692 5687 5682 5677 5672 5667 5663 5658 5653 5648 5644 5640 5635 5630 5626 5621 5616 5611 5606 5601 5596 5590 5586 5581 5576 5571 5567 5562
5724 5723 5722 5720 5718 5716 5713 5711 5708 5704 5700 5696 5692 5687 5683 5678 5673 5669 5664 5659 5654 5649 5645 5640 5636 5631 5627 5623 5618 5613 5609 5604 5600 5595 5591 5586 5581 5577 5573 5569 5565 5561 5558
5715 5714 5713 5711 5708 5706 5703 5699 5696 5692 5688 5683 5679 5674 5670 5665 5660 5655 5651 5646 5641 5637 5632 5628 5623 5619 5615 5611 5606 5601 5597 5593 5589 5585 5582 5578 5575 5571 5568 5564 5561 5558 5554
5707 5705 5703 5701 5698 5695 5692 5688 5685 5680 5676 5671 5666 5662 5657 5652 5648 5643 5638 5634 5629 5625 5621 5617 5612 5608 5604 5600 5596 5592 5588 5584 5581 5578 5575 5572 5569 5567 5564 5561 5559 5556 5552
5698 5696 5694 5691 5688 5685 5682 5678 5674 5669 5665 5660 5655 5650 5646 5641 5636 5631 5627 5622 5618 5614 5609 5605 5601 5597 5594 5590 5587 5584 5581 5578 5575 5573 5570 5568 5566 5564 5562 5560 5557 5554 5550
5690 5688 5685 5682 5679 5676 5672 5668 5664 5659 5654 5649 5645 5640 5635 5630 5625 5620 5616 5611 5607 5603 5599 5595 5592 5589 5586 5583 5580 5578 5576 5573 5571 5569 5568 5566 5564 5563 5561 5559 5556 5553 5549
5683 5680 5677 5674 5671 5667 5663 5659 5655 5650 5645 5640 5634 5629 5624 5619 5614 5609 5605 5601 5597 5594 5590 5587 5584 5582 5579 5577 5575 5573 5572 5570 5569 5568 5566 5565 5564 5562 5561 5558 5556 5553 5549
5675 5673 5670 5667 5664 5660 5656 5651 5646 5641 5636 5630 5625 5619 5613 5608 5604 5600 5596 5592 5589 5587 5584 5581 5579 5577 5575 5572 5571 5569 5569 5568 5567 5567 5566 5565 5564 5563 5561 5559 5556 5553 5550
5670 5667 5664 5661 5657 5653 5649 5644 5639 5633 5628 5622 5616 5610 5604 5600 5596 5593 5590 5586 5584 5582 5579 5577 5575 5573 5571 5570 5569 5568 5568 5568 5568 5567 5567 5566 5565 5563 5562 5560 5557 5554 5551